,,PA_Meas_PMT16A,,PR_Meas_QMR101_102,,RH_Meas_QMH101,,SR_Meas_QMS101,,TA_Meas_QMH101,,GenWind,,GenWind,
time,status,PA,status,PR,status,RH,status,SR,status,TA,status,DirAvg,status,SpdAvg,
2010-11-22, 00:00:05,VALID,916.317,VALID,0,VALID,95.4604,VALID,0.107441,VALID,19.7793,VALID,25,VALID,0.0808594,
2010-11-22, 00:01:05,VALID,916.307,VALID,0,VALID,95.7654,VALID,0,VALID,19.8378,VALID,25,VALID,0,
2010-11-22, 00:02:05,VALID,916.294,VALID,0,VALID,95.6891,VALID,0,VALID,19.8588,VALID,25,VALID,0,
2010-11-22, 00:03:05,VALID,916.26,VALID,0,VALID,95.5824,VALID,0,VALID,19.8003,VALID,25,VALID,0,
2010-11-22, 00:04:05,VALID,916.251,VALID,0,VALID,95.6662,VALID,0,VALID,19.8183,VALID,25,VALID,0,
2010-11-22, 00:05:05,VALID,916.265,VALID,0,VALID,95.7958,VALID,0,VALID,19.8573,VALID,25,VALID,0,
2010-11-22, 00:06:05,VALID,916.262,VALID,0,VALID,95.8797,VALID,0,VALID,19.8963,VALID,25,VALID,0,
2010-11-22, 00:07:05,VALID,916.235,VALID,0,VALID,95.895,VALID,0,VALID,19.9173,VALID,25,VALID,0,
2010-11-22, 00:08:05,VALID,916.234,VALID,0,VALID,95.8873,VALID,0,VALID,19.9353,VALID,25,VALID,0,
2010-11-22, 00:09:05,VALID,916.217,VALID,0,VALID,95.9331,VALID,0,VALID,19.9548,VALID,25,VALID,0,
2010-11-22, 00:10:05,VALID,916.219,VALID,0,VALID,95.8416,VALID,0,VALID,19.9758,VALID,25,VALID,0,
2010-11-22, 00:11:05,VALID,916.219,VALID,0,VALID,95.6053,VALID,0,VALID,19.9173,VALID,25,VALID,0,
2010-11-22, 00:12:05,VALID,916.208,VALID,0,VALID,95.5138,VALID,0,VALID,19.8963,VALID,25,VALID,0,
2010-11-22, 00:13:05,VALID,916.188,VALID,0,VALID,95.4299,VALID,0,VALID,19.9173,VALID,25,VALID,0,
2010-11-22, 00:14:05,VALID,916.165,VALID,0,VALID,95.3156,VALID,0.107441,VALID,19.8963,VALID,25,VALID,0,
2010-11-22, 00:15:05,VALID,916.12,VALID,0,VALID,95.2622,VALID,0,VALID,19.9368,VALID,25,VALID,0,
2010-11-22, 00:16:05,VALID,916.144,VALID,0,VALID,95.2622,VALID,0,VALID,19.9758,VALID,25,VALID,0,
2010-11-22, 00:17:05,VALID,916.114,VALID,0,VALID,95.2012,VALID,0,VALID,19.9938,VALID,25,VALID,0,
2010-11-22, 00:18:05,VALID,916.099,VALID,0,VALID,95.064,VALID,0,VALID,20.0343,VALID,25,VALID,0,
2010-11-22, 00:19:05,VALID,916.105,VALID,0,VALID,94.8353,VALID,0,VALID,20.0133,VALID,25,VALID,0,
2010-11-22, 00:20:05,VALID,916.078,VALID,0,VALID,94.66,VALID,0,VALID,19.9938,VALID,25,VALID,0,
2010-11-22, 00:21:05,VALID,916.049,VALID,0,VALID,94.5761,VALID,0,VALID,20.0133,VALID,25,VALID,0,
2010-11-22, 00:22:05,VALID,916.064,VALID,0,VALID,94.5304,VALID,0,VALID,20.0133,VALID,25,VALID,0,
2010-11-22, 00:23:05,VALID,916.042,VALID,0,VALID,94.5151,VALID,0,VALID,20.0133,VALID,25,VALID,0,
2010-11-22, 00:24:05,VALID,916.031,VALID,0,VALID,94.6142,VALID,0,VALID,20.0328,VALID,25,VALID,0,
2010-11-22, 00:25:05,VALID,916.021,VALID,0,VALID,94.8048,VALID,0,VALID,20.0523,VALID,25,VALID,0,
2010-11-22, 00:26:05,VALID,916.025,VALID,0,VALID,94.9268,VALID,0,VALID,20.0523,VALID,25,VALID,0,
2010-11-22, 00:27:05,VALID,916.006,VALID,0,VALID,95.0716,VALID,0,VALID,20.0913,VALID,25,VALID,0,
2010-11-22, 00:28:05,VALID,916.008,VALID,0,VALID,95.186,VALID,0,VALID,20.1318,VALID,25,VALID,0,
2010-11-22, 00:29:05,VALID,916.038,VALID,0,VALID,95.2622,VALID,0,VALID,20.1498,VALID,25,VALID,0,
2010-11-22, 00:30:05,VALID,916.012,VALID,0,VALID,95.0869,VALID,0,VALID,20.1513,VALID,25,VALID,0,
2010-11-22, 00:31:05,VALID,915.995,VALID,0,VALID,94.8658,VALID,0,VALID,20.1108,VALID,25,VALID,0,
2010-11-22, 00:32:05,VALID,916.007,VALID,0,VALID,94.5151,VALID,0,VALID,20.0718,VALID,25,VALID,0,
2010-11-22, 00:33:05,VALID,915.99,VALID,0,VALID,94.1797,VALID,0,VALID,20.0328,VALID,25,VALID,0,
2010-11-22, 00:34:05,VALID,916.002,VALID,0,VALID,94.1568,VALID,0,VALID,19.9938,VALID,25,VALID,0,
2010-11-22, 00:35:05,VALID,915.978,VALID,0,VALID,93.9281,VALID,0,VALID,19.9368,VALID,25,VALID,0,
2010-11-22, 00:36:05,VALID,915.971,VALID,0,VALID,94.2254,VALID,0,VALID,19.8963,VALID,25,VALID,0,
2010-11-22, 00:37:05,VALID,915.973,VALID,0,VALID,94.4922,VALID,0,VALID,19.8978,VALID,25,VALID,0,
2010-11-22, 00:38:05,VALID,915.941,VALID,0,VALID,94.4008,VALID,0,VALID,19.8783,VALID,25,VALID,0,
2010-11-22, 00:39:05,VALID,915.916,VALID,0,VALID,94.1416,VALID,0,VALID,19.7793,VALID,25,VALID,0,
2010-11-22, 00:40:05,VALID,915.927,VALID,0,VALID,94.3245,VALID,0,VALID,19.7208,VALID,25,VALID,0,
2010-11-22, 00:41:05,VALID,915.932,VALID,0,VALID,94.8124,VALID,0,VALID,19.7403,VALID,25,VALID,0,
2010-11-22, 00:42:05,VALID,915.897,VALID,0,VALID,95.0106,VALID,0,VALID,19.7613,VALID,25,VALID,0,
2010-11-22, 00:43:05,VALID,915.866,VALID,0,VALID,95.2165,VALID,0,VALID,19.7598,VALID,25,VALID,0,
2010-11-22, 00:44:05,VALID,915.837,VALID,0,VALID,95.3003,VALID,0,VALID,19.7808,VALID,25,VALID,0,
2010-11-22, 00:45:05,VALID,915.832,VALID,0,VALID,95.3842,VALID,0,VALID,19.7793,VALID,25,VALID,0,
2010-11-22, 00:46:05,VALID,915.83,VALID,0,VALID,95.4223,VALID,0,VALID,19.7793,VALID,25,VALID,0,
2010-11-22, 00:47:05,VALID,915.795,VALID,0,VALID,95.3918,VALID,0,VALID,19.8003,VALID,25,VALID,0,
2010-11-22, 00:48:05,VALID,915.8,VALID,0,VALID,95.3232,VALID,0,VALID,19.7793,VALID,25,VALID,0,
2010-11-22, 00:49:05,VALID,915.803,VALID,0,VALID,95.3689,VALID,0,VALID,19.8183,VALID,25,VALID,0,
2010-11-22, 00:50:05,VALID,915.808,VALID,0,VALID,95.4147,VALID,0,VALID,19.8783,VALID,25,VALID,0,
2010-11-22, 00:51:05,VALID,915.793,VALID,0,VALID,95.3461,VALID,0,VALID,19.8978,VALID,25,VALID,0,
2010-11-22, 00:52:05,VALID,915.8,VALID,0,VALID,95.4071,VALID,0,VALID,19.9563,VALID,25,VALID,0,
2010-11-22, 00:53:05,VALID,915.78,VALID,0,VALID,95.4299,VALID,0,VALID,19.9953,VALID,25,VALID,0,
2010-11-22, 00:54:05,VALID,915.76,VALID,0,VALID,95.1631,VALID,0,VALID,19.9353,VALID,25,VALID,0,
2010-11-22, 00:55:05,VALID,915.809,VALID,0,VALID,94.8505,VALID,0,VALID,19.9173,VALID,25,VALID,0,
2010-11-22, 00:56:05,VALID,915.803,VALID,0,VALID,94.8277,VALID,0,VALID,19.9173,VALID,24,VALID,0,
2010-11-22, 00:57:05,VALID,915.846,VALID,0,VALID,94.7972,VALID,0,VALID,19.8963,VALID,25,VALID,0,
2010-11-22, 00:58:05,VALID,915.785,VALID,0,VALID,94.6371,VALID,0,VALID,19.8978,VALID,25,VALID,0,
2010-11-22, 00:59:05,VALID,915.811,VALID,0,VALID,94.6371,VALID,0,VALID,19.9173,VALID,25,VALID,0,
2010-11-22, 01:00:05,VALID,915.804,VALID,0,VALID,94.5761,VALID,0,VALID,19.8768,VALID,25,VALID,0,
2010-11-22, 01:01:05,VALID,915.798,VALID,0,VALID,94.073,VALID,0.107441,VALID,19.8393,VALID,25,VALID,0,
2010-11-22, 01:02:05,VALID,915.794,VALID,0,VALID,93.5317,VALID,0,VALID,19.7808,VALID,25,VALID,0,
2010-11-22, 01:03:05,VALID,915.782,VALID,0,VALID,93.7604,VALID,0,VALID,19.7403,VALID,25,VALID,0,
2010-11-22, 01:04:05,VALID,915.763,VALID,0,VALID,94.1644,VALID,0,VALID,19.7418,VALID,25,VALID,0,
2010-11-22, 01:05:05,VALID,915.746,VALID,0,VALID,94.4084,VALID,0,VALID,19.7223,VALID,25,VALID,0,
2010-11-22, 01:06:05,VALID,915.724,VALID,0,VALID,94.3169,VALID,0,VALID,19.6833,VALID,25,VALID,0,
2010-11-22, 01:07:05,VALID,915.711,VALID,0,VALID,93.9738,VALID,0,VALID,19.6248,VALID,25,VALID,0,
2010-11-22, 01:08:05,VALID,915.745,VALID,0,VALID,94.1568,VALID,0,VALID,19.5843,VALID,25,VALID,0.653906,
2010-11-22, 01:09:05,VALID,915.732,VALID,0,VALID,94.5304,VALID,0,VALID,19.5273,VALID,25,VALID,0.944531,
2010-11-22, 01:10:05,VALID,915.707,VALID,0,VALID,94.7896,VALID,0,VALID,19.4688,VALID,25,VALID,0.808594,
2010-11-22, 01:11:05,VALID,915.705,VALID,0,VALID,95.0411,VALID,0,VALID,19.4298,VALID,43,VALID,0.981641,
2010-11-22, 01:12:05,VALID,915.72,VALID,0,VALID,95.2927,VALID,0,VALID,19.3893,VALID,115,VALID,0.722656,
2010-11-22, 01:13:05,VALID,915.69,VALID,0,VALID,95.3994,VALID,0,VALID,19.3518,VALID,115,VALID,0.639844,
2010-11-22, 01:14:05,VALID,915.681,VALID,0,VALID,95.5748,VALID,0,VALID,19.3503,VALID,115,VALID,0.626562,
2010-11-22, 01:15:05,VALID,915.642,VALID,0,VALID,95.7349,VALID,0.107441,VALID,19.3099,VALID,115,VALID,0.471094,
2010-11-22, 01:16:05,VALID,915.648,VALID,0,VALID,95.7882,VALID,0.107441,VALID,19.3308,VALID,115,VALID,0.591406,
2010-11-22, 01:17:05,VALID,915.655,VALID,0,VALID,95.8873,VALID,0,VALID,19.2918,VALID,115,VALID,0.927344,
2010-11-22, 01:18:05,VALID,915.627,VALID,0,VALID,96.0017,VALID,0.107441,VALID,19.3323,VALID,115,VALID,0.712109,
2010-11-22, 01:19:05,VALID,915.587,VALID,0,VALID,96.0855,VALID,0.107441,VALID,19.2918,VALID,115,VALID,0.960938,
2010-11-22, 01:20:05,VALID,915.596,VALID,0,VALID,96.1694,VALID,0.107441,VALID,19.2709,VALID,115,VALID,0.865625,
2010-11-22, 01:21:05,VALID,915.555,VALID,0,VALID,96.2075,VALID,0.107441,VALID,19.2723,VALID,115,VALID,0.576172,
2010-11-22, 01:22:05,VALID,915.52,VALID,0,VALID,96.299,VALID,0,VALID,19.2723,VALID,115,VALID,0.430078,
2010-11-22, 01:23:05,VALID,915.49,VALID,0,VALID,96.3371,VALID,0.107441,VALID,19.2528,VALID,115,VALID,0.706641,
2010-11-22, 01:24:05,VALID,915.465,VALID,0,VALID,96.3295,VALID,0.107441,VALID,19.2334,VALID,115,VALID,0.484766,
2010-11-22, 01:25:05,VALID,915.43,VALID,0,VALID,96.3142,VALID,0.107441,VALID,19.1944,VALID,115,VALID,0.448828,
2010-11-22, 01:26:05,VALID,915.436,VALID,0,VALID,96.3524,VALID,0.107441,VALID,19.1749,VALID,115,VALID,0.468359,
2010-11-22, 01:27:04,VALID,915.395,VALID,0,VALID,96.3905,VALID,0,VALID,19.1554,VALID,115,VALID,0.685547,
2010-11-22, 01:28:04,VALID,915.386,VALID,0,VALID,96.3752,VALID,0,VALID,19.1164,VALID,115,VALID,0.629297,
2010-11-22, 01:29:04,VALID,915.365,VALID,0,VALID,96.3981,VALID,0,VALID,19.0983,VALID,115,VALID,0.601172,
2010-11-22, 01:30:04,VALID,915.35,VALID,0,VALID,96.4667,VALID,0,VALID,19.0774,VALID,115,VALID,0.483203,
2010-11-22, 01:31:04,VALID,915.33,VALID,0,VALID,96.4667,VALID,0,VALID,19.0384,VALID,115,VALID,0,
2010-11-22, 01:32:04,VALID,915.319,VALID,0,VALID,96.5429,VALID,0,VALID,19.0384,VALID,115,VALID,0,
2010-11-22, 01:33:04,VALID,915.31,VALID,0,VALID,96.5887,VALID,0,VALID,19.0579,VALID,115,VALID,0.202734,
2010-11-22, 01:34:04,VALID,915.279,VALID,0,VALID,96.6344,VALID,0,VALID,19.0969,VALID,115,VALID,0.000390625,
2010-11-22, 01:35:04,VALID,915.239,VALID,0,VALID,96.7335,VALID,0,VALID,19.1554,VALID,115,VALID,0.229687,
2010-11-22, 01:36:04,VALID,915.187,VALID,0,VALID,96.764,VALID,0.107441,VALID,19.1554,VALID,115,VALID,0.494531,
2010-11-22, 01:37:04,VALID,915.209,VALID,0,VALID,96.5201,VALID,0,VALID,19.0384,VALID,115,VALID,0.475391,
2010-11-22, 01:38:04,VALID,915.161,VALID,0,VALID,96.5277,VALID,0,VALID,18.9799,VALID,115,VALID,0.498437,
2010-11-22, 01:39:04,VALID,915.142,VALID,0,VALID,96.5506,VALID,0,VALID,18.9409,VALID,115,VALID,0.260156,
2010-11-22, 01:40:04,VALID,915.144,VALID,0,VALID,96.6192,VALID,0.107441,VALID,18.92,VALID,115,VALID,0.370313,
2010-11-22, 01:41:04,VALID,915.081,VALID,0,VALID,96.6725,VALID,0,VALID,18.9214,VALID,115,VALID,0.0453125,
2010-11-22, 01:42:04,VALID,915.059,VALID,0,VALID,96.6878,VALID,0,VALID,18.9409,VALID,115,VALID,0.00234375,
2010-11-22, 01:43:04,VALID,915.022,VALID,0,VALID,96.7259,VALID,0,VALID,18.9409,VALID,115,VALID,0.00351562,
2010-11-22, 01:44:04,VALID,914.997,VALID,0,VALID,96.7716,VALID,0,VALID,18.9604,VALID,115,VALID,0.209375,
2010-11-22, 01:45:04,VALID,914.951,VALID,0,VALID,96.7716,VALID,0.107441,VALID,18.9799,VALID,115,VALID,0.00507812,
2010-11-22, 01:46:04,VALID,914.916,VALID,0,VALID,96.825,VALID,0,VALID,19.0189,VALID,115,VALID,0.480859,
2010-11-22, 01:47:04,VALID,914.908,VALID,0,VALID,96.8707,VALID,0,VALID,19.0774,VALID,115,VALID,0.372266,
2010-11-22, 01:48:04,VALID,914.869,VALID,0,VALID,96.8707,VALID,0.107441,VALID,19.0759,VALID,115,VALID,0,
2010-11-22, 01:49:04,VALID,914.836,VALID,0,VALID,96.825,VALID,0,VALID,19.0384,VALID,115,VALID,0,
2010-11-22, 01:50:04,VALID,914.802,VALID,0,VALID,96.8707,VALID,0,VALID,19.0579,VALID,115,VALID,0,
2010-11-22, 01:51:04,VALID,914.819,VALID,0,VALID,96.8555,VALID,0.107441,VALID,19.0774,VALID,115,VALID,0,
2010-11-22, 01:52:04,VALID,914.75,VALID,0,VALID,96.8555,VALID,0.107441,VALID,19.0788,VALID,115,VALID,0,
2010-11-22, 01:53:04,VALID,914.749,VALID,0,VALID,96.8555,VALID,0.107441,VALID,19.0579,VALID,115,VALID,0,
2010-11-22, 01:54:04,VALID,914.73,VALID,0,VALID,96.8555,VALID,0.107441,VALID,19.0579,VALID,115,VALID,0,
2010-11-22, 01:55:04,VALID,914.73,VALID,0,VALID,96.8631,VALID,0.107441,VALID,19.0774,VALID,115,VALID,0,
2010-11-22, 01:56:04,VALID,914.721,VALID,0,VALID,96.9165,VALID,0.107441,VALID,19.0774,VALID,115,VALID,0,
2010-11-22, 01:57:04,VALID,914.739,VALID,0,VALID,96.8707,VALID,0,VALID,19.0579,VALID,115,VALID,0,
2010-11-22, 01:58:04,VALID,914.72,VALID,0,VALID,96.825,VALID,0.107441,VALID,18.9994,VALID,115,VALID,0,
2010-11-22, 01:59:04,VALID,914.699,VALID,0,VALID,96.7945,VALID,0,VALID,18.9814,VALID,115,VALID,0,
2010-11-22, 02:00:04,VALID,914.735,VALID,0,VALID,96.7488,VALID,0,VALID,18.9424,VALID,115,VALID,0,
2010-11-22, 02:01:04,VALID,914.714,VALID,0,VALID,96.7335,VALID,0,VALID,18.8839,VALID,115,VALID,0,
2010-11-22, 02:02:04,VALID,914.708,VALID,0,VALID,96.8479,VALID,0,VALID,18.9229,VALID,115,VALID,0,
2010-11-22, 02:03:04,VALID,914.659,VALID,0,VALID,96.8555,VALID,0,VALID,18.9229,VALID,115,VALID,0,
2010-11-22, 02:04:04,VALID,914.664,VALID,0,VALID,96.8936,VALID,0,VALID,18.9229,VALID,115,VALID,0,
2010-11-22, 02:05:04,VALID,914.642,VALID,0,VALID,96.8631,VALID,0,VALID,18.9229,VALID,115,VALID,0,
2010-11-22, 02:06:04,VALID,914.644,VALID,0,VALID,96.8479,VALID,0,VALID,18.9034,VALID,115,VALID,0,
2010-11-22, 02:07:04,VALID,914.659,VALID,0,VALID,96.8403,VALID,0,VALID,18.8839,VALID,115,VALID,0,
2010-11-22, 02:08:04,VALID,914.618,VALID,0,VALID,96.8631,VALID,0,VALID,18.8839,VALID,115,VALID,0.214453,
2010-11-22, 02:09:04,VALID,914.612,VALID,0,VALID,96.9241,VALID,0,VALID,18.9229,VALID,115,VALID,0.915625,
2010-11-22, 02:10:04,VALID,914.588,VALID,0,VALID,96.947,VALID,0,VALID,18.9424,VALID,115,VALID,0.948828,
2010-11-22, 02:11:04,VALID,914.573,VALID,0,VALID,96.947,VALID,0,VALID,18.9424,VALID,115,VALID,0.971484,
2010-11-22, 02:12:04,VALID,914.571,VALID,0,VALID,96.8936,VALID,0,VALID,18.9243,VALID,115,VALID,0.821094,
2010-11-22, 02:13:04,VALID,914.5,VALID,0,VALID,96.8479,VALID,0,VALID,18.8449,VALID,115,VALID,0.890625,
2010-11-22, 02:14:04,VALID,914.472,VALID,0,VALID,96.8784,VALID,0.107441,VALID,18.8045,VALID,115,VALID,0.901563,
2010-11-22, 02:15:04,VALID,914.476,VALID,0,VALID,96.9546,VALID,0,VALID,18.8254,VALID,114,VALID,0.989844,
2010-11-22, 02:16:04,VALID,914.455,VALID,0,VALID,96.9927,VALID,0.107441,VALID,18.8254,VALID,114,VALID,0.85,
2010-11-22, 02:17:04,VALID,914.43,VALID,0,VALID,96.9775,VALID,0,VALID,18.8059,VALID,115,VALID,0.958203,
2010-11-22, 02:18:04,VALID,914.417,VALID,0,VALID,96.9775,VALID,0,VALID,18.7864,VALID,114,VALID,0.672266,
2010-11-22, 02:19:04,VALID,914.387,VALID,0,VALID,96.9927,VALID,0.107441,VALID,18.7655,VALID,115,VALID,0.8,
2010-11-22, 02:20:04,VALID,914.329,VALID,0,VALID,97.008,VALID,0,VALID,18.746,VALID,115,VALID,0.880469,
2010-11-22, 02:21:04,VALID,914.332,VALID,0,VALID,97.0308,VALID,0.107441,VALID,18.7669,VALID,115,VALID,0.817969,
2010-11-22, 02:22:04,VALID,914.322,VALID,0,VALID,97.008,VALID,0,VALID,18.6875,VALID,115,VALID,0.386719,
2010-11-22, 02:23:04,VALID,914.308,VALID,0,VALID,96.9927,VALID,0.107441,VALID,18.668,VALID,115,VALID,0.534766,
2010-11-22, 02:24:04,VALID,914.306,VALID,0,VALID,97.0385,VALID,0,VALID,18.6499,VALID,115,VALID,0,
2010-11-22, 02:25:04,VALID,914.257,VALID,0,VALID,97.0613,VALID,0,VALID,18.6485,VALID,115,VALID,0,
2010-11-22, 02:26:04,VALID,914.299,VALID,0,VALID,97.0766,VALID,0.107441,VALID,18.6499,VALID,115,VALID,0,
2010-11-22, 02:27:04,VALID,914.29,VALID,0,VALID,97.1299,VALID,0,VALID,18.6694,VALID,115,VALID,0,
2010-11-22, 02:28:04,VALID,914.259,VALID,0,VALID,97.1299,VALID,0,VALID,18.6889,VALID,115,VALID,0,
2010-11-22, 02:29:04,VALID,914.24,VALID,0,VALID,97.1299,VALID,0,VALID,18.6694,VALID,115,VALID,0,
2010-11-22, 02:30:04,VALID,914.238,VALID,0,VALID,97.1299,VALID,0,VALID,18.6499,VALID,115,VALID,0.475,
2010-11-22, 02:31:04,VALID,914.216,VALID,0,VALID,97.1376,VALID,0,VALID,18.629,VALID,115,VALID,0.458594,
2010-11-22, 02:32:04,VALID,914.188,VALID,0,VALID,97.1681,VALID,0,VALID,18.6499,VALID,115,VALID,0.335156,
2010-11-22, 02:33:04,VALID,914.139,VALID,0,VALID,97.2443,VALID,0,VALID,18.707,VALID,115,VALID,0.507813,
2010-11-22, 02:34:04,VALID,914.115,VALID,0,VALID,97.2138,VALID,0.107441,VALID,18.7265,VALID,115,VALID,0.245312,
2010-11-22, 02:35:04,VALID,914.134,VALID,0,VALID,97.1147,VALID,0,VALID,18.6889,VALID,115,VALID,0.390625,
2010-11-22, 02:36:04,VALID,914.099,VALID,0,VALID,97.0766,VALID,0,VALID,18.6304,VALID,115,VALID,0.0476562,
2010-11-22, 02:37:04,VALID,914.121,VALID,0,VALID,97.0842,VALID,0,VALID,18.6109,VALID,115,VALID,0,
2010-11-22, 02:38:04,VALID,914.115,VALID,0,VALID,97.1071,VALID,0,VALID,18.572,VALID,115,VALID,0.412109,
2010-11-22, 02:39:04,VALID,914.099,VALID,0,VALID,97.2062,VALID,0,VALID,18.6109,VALID,115,VALID,0.617969,
2010-11-22, 02:40:04,VALID,914.067,VALID,0,VALID,97.29,VALID,0,VALID,18.6889,VALID,115,VALID,0.549219,
2010-11-22, 02:41:04,VALID,914.074,VALID,0,VALID,97.2824,VALID,0,VALID,18.7279,VALID,115,VALID,0.355078,
2010-11-22, 02:42:04,VALID,914.018,VALID,0,VALID,97.2672,VALID,0,VALID,18.7279,VALID,115,VALID,0.483203,
2010-11-22, 02:43:04,VALID,914.035,VALID,0,VALID,97.2748,VALID,0,VALID,18.7474,VALID,115,VALID,0.248828,
2010-11-22, 02:44:04,VALID,914.035,VALID,0,VALID,97.2443,VALID,0,VALID,18.7279,VALID,115,VALID,0.126563,
2010-11-22, 02:45:04,VALID,914.002,VALID,0,VALID,97.2138,VALID,0,VALID,18.6889,VALID,115,VALID,0.660547,
2010-11-22, 02:46:04,VALID,914.001,VALID,0,VALID,97.1833,VALID,0,VALID,18.6694,VALID,115,VALID,0.69375,
2010-11-22, 02:47:04,VALID,913.974,VALID,0,VALID,97.2367,VALID,0,VALID,18.6694,VALID,115,VALID,0.552734,
2010-11-22, 02:48:04,VALID,913.967,VALID,0,VALID,97.2595,VALID,0,VALID,18.6694,VALID,115,VALID,0.473828,
2010-11-22, 02:49:04,VALID,913.968,VALID,0,VALID,97.2824,VALID,0,VALID,18.6694,VALID,114,VALID,0.323828,
2010-11-22, 02:50:04,VALID,913.966,VALID,0,VALID,97.2672,VALID,0,VALID,18.6694,VALID,115,VALID,0.490234,
2010-11-22, 02:51:04,VALID,913.987,VALID,0,VALID,97.2367,VALID,0,VALID,18.6304,VALID,115,VALID,0.453516,
2010-11-22, 02:52:04,VALID,913.977,VALID,0,VALID,97.29,VALID,0,VALID,18.6499,VALID,115,VALID,0.632422,
2010-11-22, 02:53:04,VALID,913.98,VALID,0,VALID,97.2367,VALID,0,VALID,18.6499,VALID,115,VALID,0.816797,
2010-11-22, 02:54:04,VALID,913.976,VALID,0,VALID,97.2977,VALID,0,VALID,18.6499,VALID,115,VALID,0.671875,
2010-11-22, 02:55:04,VALID,913.983,VALID,0,VALID,97.29,VALID,0,VALID,18.6499,VALID,115,VALID,0.998438,
2010-11-22, 02:56:04,VALID,913.95,VALID,0,VALID,97.2824,VALID,0,VALID,18.6499,VALID,115,VALID,1.05781,
2010-11-22, 02:57:04,VALID,913.957,VALID,0,VALID,97.2672,VALID,0,VALID,18.6304,VALID,115,VALID,0.753516,
2010-11-22, 02:58:04,VALID,913.981,VALID,0,VALID,97.29,VALID,0,VALID,18.6109,VALID,114,VALID,0.962109,
2010-11-22, 02:59:04,VALID,913.954,VALID,0,VALID,97.2672,VALID,0,VALID,18.5914,VALID,114,VALID,0.778516,
2010-11-22, 03:00:04,VALID,913.948,VALID,0,VALID,97.3129,VALID,0,VALID,18.5914,VALID,114,VALID,0.765625,
2010-11-22, 03:01:04,VALID,913.945,VALID,0,VALID,97.3281,VALID,0,VALID,18.6109,VALID,114,VALID,0.646094,
2010-11-22, 03:02:04,VALID,913.912,VALID,0,VALID,97.2977,VALID,0,VALID,18.6109,VALID,114,VALID,0.826172,
2010-11-22, 03:03:04,VALID,913.946,VALID,0,VALID,97.3358,VALID,0.107441,VALID,18.6304,VALID,114,VALID,0.833984,
2010-11-22, 03:04:04,VALID,913.935,VALID,0,VALID,97.3205,VALID,0.107441,VALID,18.6499,VALID,114,VALID,0.7125,
2010-11-22, 03:05:04,VALID,913.928,VALID,0,VALID,97.2977,VALID,0,VALID,18.6109,VALID,114,VALID,0.548437,
2010-11-22, 03:06:04,VALID,913.921,VALID,0,VALID,97.2443,VALID,0,VALID,18.5914,VALID,114,VALID,0.397656,
2010-11-22, 03:07:04,VALID,913.903,VALID,0,VALID,97.2214,VALID,0,VALID,18.5525,VALID,114,VALID,0.457812,
2010-11-22, 03:08:04,VALID,913.927,VALID,0,VALID,97.2977,VALID,0,VALID,18.5525,VALID,114,VALID,0.570313,
2010-11-22, 03:09:04,VALID,913.923,VALID,0,VALID,97.2214,VALID,0,VALID,18.494,VALID,114,VALID,0.566406,
2010-11-22, 03:10:04,VALID,913.896,VALID,0,VALID,97.2443,VALID,0,VALID,18.4745,VALID,114,VALID,0.873047,
2010-11-22, 03:11:04,VALID,913.906,VALID,0,VALID,97.2367,VALID,0,VALID,18.455,VALID,114,VALID,0,
2010-11-22, 03:12:04,VALID,913.892,VALID,0,VALID,97.2443,VALID,0,VALID,18.455,VALID,114,VALID,0,
2010-11-22, 03:13:04,VALID,913.891,VALID,0,VALID,97.2519,VALID,0,VALID,18.455,VALID,114,VALID,0,
2010-11-22, 03:14:04,VALID,913.865,VALID,0,VALID,97.2443,VALID,0,VALID,18.4355,VALID,114,VALID,0,
2010-11-22, 03:15:04,VALID,913.887,VALID,0,VALID,97.1833,VALID,0,VALID,18.377,VALID,114,VALID,0,
2010-11-22, 03:16:04,VALID,913.867,VALID,0,VALID,97.2672,VALID,0.107441,VALID,18.377,VALID,114,VALID,0,
2010-11-22, 03:17:04,VALID,913.894,VALID,0,VALID,97.3358,VALID,0,VALID,18.416,VALID,114,VALID,0,
2010-11-22, 03:18:04,VALID,913.899,VALID,0,VALID,97.3129,VALID,0,VALID,18.416,VALID,114,VALID,0,
2010-11-22, 03:19:04,VALID,913.882,VALID,0,VALID,97.3358,VALID,0,VALID,18.416,VALID,114,VALID,0,
2010-11-22, 03:20:04,VALID,913.872,VALID,0,VALID,97.3281,VALID,0,VALID,18.455,VALID,114,VALID,0,
2010-11-22, 03:21:04,VALID,913.851,VALID,0,VALID,97.3358,VALID,0,VALID,18.4745,VALID,114,VALID,0,
2010-11-22, 03:22:04,VALID,913.874,VALID,0,VALID,97.3129,VALID,0.107441,VALID,18.4355,VALID,114,VALID,0,
2010-11-22, 03:23:04,VALID,913.877,VALID,0,VALID,97.3281,VALID,0,VALID,18.3965,VALID,114,VALID,0,
2010-11-22, 03:24:04,VALID,913.863,VALID,0,VALID,97.2824,VALID,0,VALID,18.377,VALID,114,VALID,0,
2010-11-22, 03:25:04,VALID,913.868,VALID,0,VALID,97.2748,VALID,0,VALID,18.338,VALID,114,VALID,0,
2010-11-22, 03:26:04,VALID,913.857,VALID,0,VALID,97.3205,VALID,0.107441,VALID,18.299,VALID,114,VALID,0,
2010-11-22, 03:27:04,VALID,913.854,VALID,0,VALID,97.3129,VALID,0,VALID,18.3185,VALID,114,VALID,0,
2010-11-22, 03:28:04,VALID,913.823,VALID,0,VALID,97.2977,VALID,0,VALID,18.2796,VALID,114,VALID,0,
2010-11-22, 03:29:04,VALID,913.817,VALID,0,VALID,97.3358,VALID,0,VALID,18.2796,VALID,114,VALID,0,
2010-11-22, 03:30:04,VALID,913.777,VALID,0,VALID,97.3358,VALID,0,VALID,18.2782,VALID,114,VALID,0,
2010-11-22, 03:31:04,VALID,913.806,VALID,0,VALID,97.3281,VALID,0,VALID,18.299,VALID,114,VALID,0,
2010-11-22, 03:32:04,VALID,913.775,VALID,0,VALID,97.3129,VALID,0.107441,VALID,18.2796,VALID,114,VALID,0.152344,
2010-11-22, 03:33:04,VALID,913.765,VALID,0,VALID,97.3053,VALID,0,VALID,18.2601,VALID,114,VALID,0.807422,
2010-11-22, 03:34:04,VALID,913.777,VALID,0,VALID,97.3434,VALID,0.107441,VALID,18.299,VALID,114,VALID,0.850391,
2010-11-22, 03:35:04,VALID,913.767,VALID,0,VALID,97.351,VALID,0,VALID,18.3185,VALID,114,VALID,0.864062,
2010-11-22, 03:36:04,VALID,913.774,VALID,0,VALID,97.3815,VALID,0,VALID,18.377,VALID,114,VALID,1.19297,
2010-11-22, 03:37:04,VALID,913.728,VALID,0,VALID,97.351,VALID,0,VALID,18.3756,VALID,114,VALID,0.573438,
2010-11-22, 03:38:04,VALID,913.73,VALID,0,VALID,97.3739,VALID,0,VALID,18.338,VALID,114,VALID,0.882422,
2010-11-22, 03:39:04,VALID,913.722,VALID,0,VALID,97.3663,VALID,0,VALID,18.3185,VALID,114,VALID,0.872656,
2010-11-22, 03:40:04,VALID,913.676,VALID,0,VALID,97.3586,VALID,0,VALID,18.299,VALID,114,VALID,0.690234,
2010-11-22, 03:41:04,VALID,913.699,VALID,0,VALID,97.3434,VALID,0,VALID,18.3185,VALID,114,VALID,0.598047,
2010-11-22, 03:42:04,VALID,913.748,VALID,0,VALID,97.3663,VALID,0,VALID,18.3575,VALID,114,VALID,0.719141,
2010-11-22, 03:43:04,VALID,913.733,VALID,0,VALID,97.3434,VALID,0,VALID,18.3185,VALID,114,VALID,0.760547,
2010-11-22, 03:44:04,VALID,913.713,VALID,0,VALID,97.3205,VALID,0,VALID,18.299,VALID,114,VALID,0.287109,
2010-11-22, 03:45:04,VALID,913.695,VALID,0,VALID,97.3358,VALID,0.107441,VALID,18.2782,VALID,114,VALID,0.156641,
2010-11-22, 03:46:04,VALID,913.731,VALID,0,VALID,97.3205,VALID,0,VALID,18.2796,VALID,114,VALID,0.671875,
2010-11-22, 03:47:04,VALID,913.707,VALID,0,VALID,97.351,VALID,0,VALID,18.299,VALID,114,VALID,0.620313,
2010-11-22, 03:48:04,VALID,913.71,VALID,0,VALID,97.3358,VALID,0,VALID,18.2406,VALID,114,VALID,0.457031,
2010-11-22, 03:49:04,VALID,913.736,VALID,0,VALID,97.3586,VALID,0,VALID,18.2406,VALID,114,VALID,0.641797,
2010-11-22, 03:50:04,VALID,913.735,VALID,0,VALID,97.3434,VALID,0.107441,VALID,18.2587,VALID,114,VALID,0.377344,